CZ-6A DEB

Satellite information

Favourite Embed

Satellite Type and Status

DEBRISIN ORBIT

Key statistics

Satellite CZ-6A DEB at a glance.

Uptime

1082

Days in orbit

Revolutions

≈ 14.5

Per day

Orbit

SSO

Sun Synchronous Orbit

Inclination

98.5

Latest

Satellite identification and parameters

Extended collection of information and parameters for CZ-6A DEB.

Object identification

Identified? True

Debris? True

Object name: CZ-6A DEB

International designator: 2022-151AHA

Object number (NORAD): 56674

Object ID (CCSDS): 56674

Country: PEOPLES REPUBLIC OF CHINA (PRC)

Current information (Y/N): Y

RCS size: SMALL

Orbital parameters

Period: 98.98 minutes

Inclination: 98.5409 deg

SMA: 7088.005 km

Apoapsis: 801.457 km

Periapsis: 618.282 km

RAAN: 327.94 deg

Eccentricy: 0.01292146

Argument of periapsis: 311.7886 deg

Mean anomaly: 47.2327 deg

Mean motion: 14.5484514 rev/day

Mean motion (dot): 0.00008602 rev/day2

B* drag term: 0.0018016399 1/REarth

Two-line elements (TLE)

Creation date: Oct. 27, 2025, 2:46 a.m.

Reference frame: TEME

Reference center: EARTH

Epoch: Oct. 26, 2025, 12:39 p.m. UTC

TLE line 0: 0 CZ-6A DEB

TLE line 1: 1 56674U 22151AHA 25299.52746223 .00008602 00000-0 18016-2 0 9991

TLE line 2: 2 56674 98.5409 327.9400 0129215 311.7886 47.2327 14.54845140137590

Live tracking on map

Real-time ground track for satellite CZ-6A DEB.

In-orbit conjunctions

A list of the most updated potential collisions computed for object CZ-6A DEB.

Target Orbit TCA Probability of collision Miss distance Type
CZ-6A DEB SSO 2025-01-25 11:09:16 0.0003927689 80.0 (m) DEBRIS
THOR ABLESTAR DEB LEO 2024-11-16 03:00:05 0.0001019199 473.0 (m) DEBRIS
UWE-1 SSO 2024-06-13 22:04:38 0.0002448722 81.0 (m) PAYLOAD

Associated space launch

Chinese satellite reported for atmospheric/ocean/environmental/spatial parameter research purposes, details TBD.

CZ-6A DEB was lifted into orbit during the mission ‘Long March 6A | Yunhai 3’, on board a Long March 6A space rocket.

The launch took place on Nov. 11, 2022, 10:52 p.m. from Launch Complex 9A.

For more information about the launch, click the button.

Launch to space Long March 6A | Yunhai 3
Long March 6A | Yunhai 3

Agency: N/A

Status: Launch Successful

Launch date: Nov. 11, 2022, 10:52 p.m. UTC

Rocket: Long March 6A

Launch pad: Launch Complex 9A

Location: Taiyuan Satellite Launch Center, People's Republic of China

...

Latest news about this satellite

There are no fresh news available about this satellite. Check back as we update our databases every day.


Newsletter sign-up

Weekly statistics, charts and insights to help you stay on top of the space industry.